Home > Weather > Blacktown > Past weeks

Flag for Australia Past Weather in Blacktown, New South Wales, Australia — Yesterday and Last 2 Weeks

Now
55 °F

Refreshingly cool.


Feels Like: 54 °F
Forecast: 33 / 60 °F
Wind: 7 mph from West

Location: Bankstown Airport Aws

Current Time: Jun 29, 2016 at 11:56:06 AM

Latest Report: Jun 29, 2016 at 11:00 AM


Visibility: N/A

Pressure: 30.35 "Hg

Humidity: 57%

Dew Point: 40 °F

Location of BlacktownLocation

Past Weather in Blacktown — Graph

°F

Blacktown Temperature Yesterday

Maximum temperature yesterday: 62 °F (at 3:00 PM)
Minimum temperature yesterday: 44 °F (at 11:00 PM)
Average temperature yesterday: 51 °F

High & Low Weather Summary for the Past Weeks

 TemperatureHumidityPressure
High69 °F (Jun 16, 3:00 PM)97% (Jun 19, 8:00 PM)30.60 "Hg (Jun 19, 8:00 PM)
Low38 °F (Jun 26, 6:00 AM)32% (Jun 25, 3:00 PM)29.35 "Hg (Jun 20, 2:00 PM)
Average54 °F69%29.98 "Hg
* Reported Jun 14 9:00 AM — Jun 29 9:00 AM, Blacktown, Weather by CustomWeather, © 2016

Note: Actual official high and low records may vary slightly from our data, if they occured in-between our weather recording intervals... More about our weather records

Advertising

Blacktown Weather History for the Previous 24 Hours

Scroll right to see more
 ConditionsComfort  
Time TempWeatherWind HumidityBarometerVisibility
9:00 AM
Wed, Jun 29
47 °FCool.7 mph72%30.38 "HgN/A
8:00 AM42 °FQuite cool.6 mph86%30.37 "HgN/A
6:00 AM40 °FChilly.6 mph88%30.34 "HgN/A
5:00 AM40 °FQuite cool.6 mph86%30.33 "HgN/A
3:00 AM41 °FQuite cool.6 mph87%30.33 "HgN/A
2:00 AM42 °FQuite cool.7 mph81%30.33 "HgN/A
12:00 AM44 °FQuite cool.5 mph78%30.34 "HgN/A
11:00 PM
Tue, Jun 28
44 °FQuite cool.3 mph78%30.34 "HgN/A
9:00 PM46 °FCool.5 mph73%30.33 "HgN/A
8:00 PM45 °FQuite cool.1 mph77%30.32 "HgN/A
6:00 PM53 °FCool.5 mph57%30.28 "HgN/A
5:00 PM56 °FRefreshingly cool.8 mph50%30.25 "HgN/A
3:00 PM62 °FRefreshingly cool.12 mph42%30.22 "HgN/A
2:00 PM61 °FRefreshingly cool.10 mph41%30.21 "HgN/A
12:00 PM59 °FRefreshingly cool.14 mph44%30.21 "HgN/A
11:00 AM57 °FRefreshingly cool.15 mph48%30.23 "HgN/A
Weather by CustomWeather, © 2016

See weather overviewHow to use our weather pages